Location: Unspecified
(0.0000°N, 0.0000°E)
Time: 07:21:20
(UTC+00:00)

Vanguard 2 - Pass Details

Date: 10 December 2017
Orbit: 553 x 2939 km, 32.9° (Epoch: 23 June)

Event Time Altitude Azimuth Distance (km) Brightness Sun altitude
Rises 09:24:00 0° 222° (SW) 6,792 12.3 47.2°
Reaches altitude 10° 09:29:45 10° 212° (SSW) 5,741 12.1 48.3°
Maximum altitude 09:43:43 29° 158° (SSE) 3,853 12.3 51.1°
Drops below altitude 10° 09:54:27 10° 103° (ESE) 4,426 12.1 53.2°
Sets 09:58:06 0° 92° (E) 5,081 12.1 53.9°
